Wind_Speed
4 5 3 5 4 5 2 1 3 2 2 0 3 3 6 2 2 3 5 16 13 24 25 25 22 20 18 16 14 15 13 10 9 10 9 7 6 6 6 7 8 7 7 7 7 8 8 8 8
7 3 4 2 4 3 4 4 2 2 3 4 5 3 5 2 2 1 7 14 15 25 29 29 26 24 21 19 17 15 13 11 12 13 11 10 8 5 4 5 6 7 5 6 6 7 8 7 8
6 3 3 4 3 3 3 3 4 3 3 2 3 4 2 1 3 5 6 14 15 22 24 24 22 21 19 18 17 15 14 12 13 13 12 12 10 9 9 8 7 5 4 4 4 6 7 7 7
2 5 4 4 1 2 2 3 4 5 3 6 3 5 1 3 3 6 7 17 18 20 21 23 21 20 19 16 16 15 14 14 12 12 13 12 11 9 8 8 9 8 5 4 4 5 5 5 5
4 3 4 3 3 3 2 4 4 2 3 5 3 2 1 4 2 6 14 17 22 20 22 24 22 21 19 18 17 15 15 16 14 13 14 11 11 9 8 8 8 9 7 4 5 5 4 4 6
4 3 4 1 2 2 3 3 2 2 2 4 4 1 3 2 7 11 13 17 18 18 20 23 22 21 19 18 18 16 15 16 17 15 14 13 11 11 11 9 9 10 8 6 5 7 8 6 6
5 4 4 2 2 2 2 6 0 2 3 1 3 2 3 3 10 11 13 16 19 19 19 21 22 22 21 20 19 18 17 17 17 15 14 13 14 13 13 12 10 11 10 10 8 6 7 8 8
4 4 3 2 1 3 4 5 1 2 3 4 4 3 4 5 11 13 14 17 21 23 23 24 24 25 24 22 22 19 18 18 18 18 17 16 14 14 14 14 13 12 13 12 11 9 7 9 8
3 4 2 2 3 2 4 5 4 5 3 5 3 2 4 1 5 8 12 16 18 22 25 25 25 25 24 23 23 22 20 19 21 20 19 17 16 16 16 16 15 14 14 14 13 13 10 8 9
4 3 6 3 2 2 2 1 3 4 7 4 2 2 4 3 3 5 5 9 16 19 23 24 26 27 26 25 25 24 23 23 23 22 21 20 18 18 18 18 17 17 17 16 15 13 12 10 10
1 3 3 2 1 2 2 2 1 2 5 7 5 4 6 4 5 5 2 1 2 5 20 24 27 27 28 26 26 26 25 24 24 24 23 23 22 21 20 20 20 20 19 18 16 15 13 13 13
3 4 3 4 1 3 3 2 3 5 9 7 8 5 3 6 7 3 7 8 9 11 6 18 24 28 28 26 27 23 27 27 27 27 26 26 26 25 24 24 24 23 21 19 19 18 16 16 15
2 3 5 6 8 6 3 7 4 10 11 9 9 8 8 8 2 7 9 8 7 12 13 11 4 14 19 24 26 24 25 26 26 26 27 28 28 28 26 26 25 25 24 22 21 21 19 17 15
3 4 8 7 8 5 5 3 4 8 5 8 7 10 8 3 6 8 8 8 8 9 11 10 11 7 3 12 18 22 24 26 27 26 26 26 28 28 28 25 24 26 26 22 22 21 21 20 16
4 6 7 3 4 3 4 3 6 7 7 10 11 10 5 6 8 6 7 7 10 13 11 10 9 8 6 4 5 14 20 24 28 27 26 27 26 28 28 25 27 25 22 24 24 22 21 19 16
4 4 5 4 6 3 3 6 7 8 8 11 11 10 5 8 10 14 14 14 14 16 17 15 13 12 10 8 8 8 8 16 22 25 28 27 27 29 28 28 28 28 23 25 26 24 23 21 18
5 2 2 7 5 2 3 5 7 11 8 10 10 8 6 8 13 17 18 19 21 23 20 19 19 19 16 14 12 10 10 14 19 24 28 29 29 30 31 32 31 27 27 27 27 26 22 20 16
5 5 4 5 5 7 10 10 5 8 8 9 8 8 7 9 8 16 21 23 25 26 26 25 25 24 22 19 17 15 11 10 15 20 25 27 33 32 32 32 29 27 26 28 27 27 22 18 13
4 4 7 5 8 4 5 11 8 8 8 7 8 8 9 9 8 19 23 26 29 31 30 30 27 26 26 26 23 18 20 20 17 19 23 25 26 29 31 30 26 23 33 27 26 23 15 12 18
3 6 6 7 4 5 7 17 11 5 6 7 6 9 9 7 10 16 20 27 29 30 33 34 32 29 24 26 26 18 14 12 21 20 19 21 27 25 29 30 29 31 25 25 24 23 14 11 25
4 4 5 7 5 5 7 7 2 6 10 13 11 8 10 8 8 8 14 19 23 26 28 32 35 35 30 26 26 26 20 14 14 21 24 20 19 23 24 31 31 28 27 26 24 22 19 16 28
3 5 6 9 8 4 4 8 2 3 8 9 7 7 7 7 6 5 10 16 19 21 22 24 28 34 35 32 25 23 20 20 19 20 25 25 22 20 22 27 28 26 27 29 26 21 21 19 23
3 4 7 6 5 3 2 2 4 3 3 4 5 7 7 7 7 7 9 14 18 24 24 24 23 28 33 34 26 25 25 26 23 22 22 21 22 22 25 29 28 26 26 28 25 20 16 17 25
7 4 6 3 0 3 4 1 4 2 2 2 4 7 7 7 8 8 13 14 19 27 28 29 23 20 27 29 26 27 25 28 24 24 24 22 21 20 25 25 25 24 24 21 21 16 11 20 27
7 9 5 5 2 7 3 6 6 3 6 5 3 6 7 7 6 6 7 15 20 23 28 26 23 23 22 21 25 28 29 28 25 26 23 22 20 22 25 28 26 24 22 19 16 15 20 29 27
2 4 3 6 3 11 8 6 4 4 1 2 5 6 5 7 6 5 7 12 17 24 27 27 25 23 24 25 22 24 29 27 26 25 24 26 20 22 23 27 21 19 21 17 15 17 18 27 23
5 3 2 5 11 6 4 5 1 3 4 5 6 4 6 7 7 7 12 15 17 19 21 20 21 21 24 24 23 23 26 30 26 25 25 24 17 18 19 26 24 24 24 27 23 28 17 25 22
5 3 3 2 4 5 5 6 9 5 8 8 7 7 7 7 7 6 8 13 15 17 16 20 23 24 25 27 28 28 29 29 29 27 25 16 11 14 20 24 27 20 23 29 35 27 21 24 26
4 3 2 2 2 3 7 6 3 8 9 7 8 8 8 7 7 5 7 10 11 13 17 19 24 28 28 28 29 31 31 30 31 23 23 16 7 10 15 16 19 20 28 29 30 26 23 30 28
4 4 4 4 7 3 4 16 13 11 7 7 8 10 8 7 6 6 9 10 11 12 13 18 23 25 30 30 31 31 29 28 27 26 22 19 10 9 7 8 16 25 29 31 28 26 28 33 31
Wind_Direction
2 333 326 41 57 64 333 310 271 304 338 26 272 124 134 75 165 211 178 169 175 181 179 182 182 184 183 181 179 176 178 179 170 155 152 143 140 127 121 118 113 121 115 101 91 92 98 92 68
358 359 49 76 84 75 275 259 156 222 266 88 86 76 39 360 332 14 136 193 185 182 182 185 186 188 188 187 185 185 184 187 176 170 167 162 156 142 127 125 127 129 121 102 97 96 102 98 72
1 23 73 90 117 153 188 233 251 288 326 316 99 60 91 269 301 177 253 186 185 181 186 189 190 192 192 194 194 192 196 192 186 182 181 180 174 168 160 155 144 142 139 113 103 100 114 109 89
345 17 34 83 164 269 220 266 265 334 341 26 99 80 23 247 206 203 188 181 184 188 192 192 194 196 199 201 201 201 201 193 193 185 188 190 189 183 175 168 166 164 159 138 134 118 121 112 88
50 55 53 59 293 282 314 311 341 18 356 357 2 166 224 329 236 177 163 180 187 190 193 194 199 200 203 206 207 206 203 201 199 196 198 199 197 195 192 186 178 170 175 178 161 139 129 111 80
39 93 63 149 276 274 312 305 306 352 353 334 54 50 249 233 179 177 182 187 193 194 195 199 204 207 208 210 210 208 208 207 206 206 201 201 206 208 203 203 195 185 190 201 192 172 161 148 119
114 89 187 202 241 293 276 322 24 276 333 15 136 135 280 240 212 191 199 195 198 202 200 203 207 211 213 215 214 212 214 208 212 213 213 216 209 211 212 211 208 201 197 204 210 202 180 167 156
104 90 133 266 238 237 320 340 311 3 297 312 152 207 249 239 220 211 204 204 207 208 209 207 208 210 214 218 220 221 221 213 219 218 220 221 223 221 222 219 218 214 209 208 214 220 202 187 179
117 64 185 213 166 247 352 16 330 299 341 341 310 193 282 248 151 196 211 214 217 219 219 218 217 217 219 223 224 227 228 227 226 226 226 227 229 227 229 227 224 224 223 222 220 218 219 204 195
84 115 214 213 218 245 298 323 303 359 349 305 324 335 357 55 114 162 205 226 231 231 231 230 229 226 224 225 227 228 229 227 227 229 229 230 231 230 227 227 228 230 229 226 226 226 217 215 213
142 191 214 261 301 278 282 265 246 316 290 233 253 257 328 317 314 304 345 140 62 251 244 245 239 236 235 235 234 229 228 229 228 232 232 233 236 237 233 232 233 234 232 231 230 233 228 220 222
336 258 242 287 338 345 261 282 271 206 240 246 251 237 266 259 255 262 108 100 102 76 57 238 244 246 243 244 242 249 235 234 231 231 234 236 239 241 241 238 235 235 235 235 234 236 229 223 219
195 298 322 295 288 250 269 246 247 271 263 276 280 282 244 247 197 145 129 113 108 80 66 61 221 236 247 246 251 252 250 244 243 242 241 241 244 247 246 242 238 237 233 230 235 236 234 230 229
307 283 290 291 287 262 232 299 142 278 336 305 308 289 302 256 179 153 141 126 103 86 74 69 63 61 229 244 252 254 259 260 254 251 252 250 249 246 245 240 242 240 240 238 238 240 231 230 227
318 328 327 293 327 310 159 350 248 289 344 306 307 291 3 43 93 99 98 86 61 58 51 52 44 36 28 15 280 263 261 263 264 260 264 254 252 252 245 238 239 245 243 230 232 233 231 227 220
12 42 358 294 348 28 99 273 293 337 8 318 318 315 47 47 53 57 65 62 48 41 39 34 28 23 17 358 332 320 281 254 258 262 263 257 256 257 249 251 252 246 230 228 225 224 224 229 220
9 288 286 315 345 350 54 266 283 316 327 302 302 317 90 71 48 51 49 48 49 44 37 31 23 20 16 13 360 323 300 278 257 249 255 253 256 262 259 252 251 238 239 228 220 220 224 228 222
296 307 283 264 296 329 305 279 289 308 323 298 329 357 88 65 40 41 45 44 39 36 33 31 28 17 10 8 5 1 341 300 273 263 264 270 263 262 260 255 252 243 237 235 224 220 217 226 189
309 278 277 261 272 300 253 284 273 273 275 332 21 68 69 53 26 45 40 36 32 28 24 22 20 15 11 3 358 1 345 329 309 293 284 271 265 259 246 251 247 246 242 231 231 219 207 164 163
301 287 288 283 332 319 298 293 278 281 40 28 64 61 55 38 24 13 18 23 24 20 19 15 13 9 8 2 356 349 341 329 318 309 304 281 265 261 248 251 237 225 225 227 219 209 181 167 170
339 3 324 282 309 243 316 307 107 64 54 62 42 46 39 33 18 7 10 16 18 16 12 10 6 2 2 2 355 349 344 334 335 320 308 307 287 264 249 240 233 223 217 219 218 211 209 173 182
302 335 326 317 341 303 62 289 358 62 68 48 23 30 17 8 354 350 354 355 2 2 4 5 4 360 354 357 351 348 332 320 322 314 309 303 294 265 245 236 233 225 225 224 212 212 210 188 198
302 306 293 276 260 320 252 272 257 173 54 22 358 7 0 342 343 339 336 345 352 356 351 350 356 359 353 352 355 338 334 320 317 314 310 304 291 253 237 229 231 223 221 217 217 212 212 199 194
296 325 294 321 185 297 127 20 277 325 274 171 31 13 347 338 336 338 347 347 346 346 339 344 347 0 345 349 351 333 335 322 321 311 304 306 291 258 231 217 209 203 204 218 206 198 190 209 199
20 25 334 336 4 266 8 346 254 61 22 59 28 320 323 314 332 335 332 342 340 338 343 338 335 348 344 345 348 338 332 329 317 306 299 307 278 252 225 213 208 216 221 212 200 202 188 220 188
340 116 180 280 278 296 312 250 269 124 77 282 270 269 297 323 309 313 316 330 345 344 346 344 335 349 355 3 356 336 339 330 320 314 303 299 282 250 230 210 200 199 200 187 197 224 209 209 188
328 51 317 263 268 287 246 299 192 218 320 322 301 302 346 301 303 326 335 340 341 347 359 357 357 1 6 359 357 347 339 343 323 324 304 299 279 247 221 206 199 190 191 203 195 191 224 181 164
102 252 335 304 309 293 292 292 274 232 266 277 304 314 306 299 300 313 324 343 352 357 2 7 5 1 1 356 349 344 341 336 335 329 304 291 275 235 205 190 186 183 181 169 161 176 216 173 153
355 325 31 190 259 271 303 275 240 259 263 270 278 286 276 269 270 285 308 330 347 347 355 360 356 352 348 350 345 342 336 336 332 324 322 296 250 212 202 191 188 172 170 170 166 183 182 157 144
182 186 124 132 286 239 250 274 270 279 250 239 268 283 276 265 276 282 303 323 345 359 349 350 0 359 356 349 344 337 336 334 328 331 315 309 254 226 228 201 185 175 165 170 166 161 155 147 142
Height
768 766 765 766 791 799 801 786 774 768 762 750 747 751 758 757 762 781 751 751 753 756 759 762 765 768 771 772 774 775 775 778 779 780 782 783 786 785 785 785 785 785 786 785 785 785 784 784 784
767 766 766 779 803 813 806 781 773 764 754 751 752 755 760 766 754 755 754 752 752 752 754 757 760 764 768 771 773 775 776 777 777 778 780 781 783 785 786 786 786 786 787 786 787 787 786 786 785
767 766 776 794 810 809 800 774 771 759 753 752 758 755 759 762 754 754 753 755 757 759 762 764 767 769 772 773 774 775 776 776 777 778 779 780 780 781 782 783 785 787 788 788 788 787 788 787 786
768 771 783 799 793 782 779 770 769 763 755 754 756 766 756 753 752 751 751 754 757 760 762 765 768 770 772 773 774 775 776 777 777 777 778 780 781 781 781 783 783 785 786 787 788 789 789 788 787
770 780 800 800 793 781 772 770 767 766 764 762 758 768 762 753 752 751 752 754 756 758 760 763 767 768 770 771 773 774 774 775 776 778 779 780 781 782 783 784 784 785 785 785 787 788 790 790 790
781 787 807 807 792 777 771 767 767 767 765 761 762 765 762 754 753 753 753 756 759 760 762 764 766 767 769 770 772 773 773 773 775 777 778 778 780 782 781 783 784 784 785 785 786 786 787 788 790
784 797 802 796 793 783 773 768 768 767 765 764 758 769 760 755 753 754 754 757 759 761 762 763 765 766 768 769 771 771 771 773 775 777 778 778 779 779 780 781 782 783 784 784 786 787 787 786 787
782 793 795 793 796 787 772 768 762 765 765 756 755 769 765 751 752 754 756 757 757 757 758 760 762 763 765 766 768 769 770 772 773 774 775 777 778 780 780 781 782 782 782 783 783 785 786 787 787
777 802 806 790 789 781 772 773 763 762 764 761 757 757 754 753 753 755 757 757 759 759 759 760 761 762 763 764 765 767 769 771 772 773 774 775 776 778 779 780 781 781 782 783 782 782 784 786 787
787 805 793 778 775 778 773 772 770 769 772 765 760 756 755 754 754 757 757 758 758 760 760 761 761 760 760 761 761 763 764 766 768 770 772 773 774 775 776 777 778 779 780 780 781 781 783 785 786
785 795 782 775 771 771 773 774 768 771 775 768 764 759 756 755 754 754 756 757 758 757 758 759 760 759 760 760 759 761 762 762 764 767 769 770 771 772 773 774 775 777 777 779 780 781 782 783 784
787 778 778 774 771 773 775 769 771 771 766 758 757 757 757 755 754 754 755 756 756 755 754 753 754 755 757 759 759 760 759 760 760 761 765 767 768 769 769 770 771 773 777 777 780 780 779 780 781
785 779 776 774 775 774 770 773 773 769 758 757 755 755 756 755 755 755 755 756 756 754 753 751 750 751 754 755 756 757 757 757 758 757 760 762 764 765 765 767 768 770 772 773 777 779 778 779 780
783 782 781 774 773 771 772 772 770 760 756 756 756 754 752 754 755 757 757 755 755 753 752 752 751 751 750 751 753 753 754 755 756 756 756 757 759 759 761 763 765 767 770 771 773 775 775 776 777
782 788 784 775 773 773 772 778 776 762 763 761 758 756 756 757 755 758 761 762 761 757 755 752 751 751 751 749 749 749 750 751 753 754 752 753 754 756 757 758 762 765 765 767 767 771 773 772 775
792 794 802 779 776 773 773 794 772 767 767 766 761 760 761 764 765 766 767 766 765 762 758 755 753 751 749 747 747 746 745 744 747 748 747 747 749 750 753 757 757 760 759 762 763 766 768 770 771
806 810 803 794 779 777 780 791 775 770 770 768 764 762 765 769 770 770 770 769 767 764 760 758 755 752 750 747 744 743 742 742 742 742 741 742 743 744 746 749 752 753 756 757 758 761 763 766 768
812 812 807 806 787 784 790 788 778 771 768 767 768 769 770 775 777 776 774 772 769 765 763 760 756 752 750 748 745 742 739 739 738 736 736 737 737 737 740 742 747 749 750 755 754 757 758 762 765
807 810 813 803 791 792 790 786 782 773 768 770 775 778 779 782 782 779 777 774 771 767 764 762 759 756 753 748 745 741 739 735 733 732 731 730 728 729 732 736 741 743 742 744 749 751 756 761 764
804 810 812 799 789 792 791 781 776 772 778 784 783 786 788 787 785 783 780 777 774 772 768 763 761 759 755 749 745 742 738 735 732 729 726 724 723 723 724 727 731 736 738 741 741 745 752 754 762
810 816 816 813 798 792 791 789 774 774 791 790 794 794 793 792 791 787 782 780 777 774 771 767 763 759 756 750 744 738 735 735 730 727 721 719 719 717 717 719 722 725 729 733 735 740 746 750 758
815 813 810 807 809 814 793 802 782 796 800 801 805 800 798 794 791 788 784 780 778 775 772 768 765 761 755 749 746 742 738 732 728 726 721 715 713 712 712 713 716 718 721 726 731 737 740 744 753
817 811 812 806 810 808 802 816 796 793 800 806 804 803 800 796 793 789 786 782 779 775 769 765 762 759 756 749 741 744 736 732 725 722 717 712 708 707 707 708 711 714 716 722 727 732 735 737 747
814 813 811 812 815 822 813 817 814 800 797 803 805 806 802 798 794 789 786 782 778 773 769 764 760 754 758 750 744 742 734 732 722 719 714 710 705 703 703 705 708 711 715 719 724 726 729 738 743
823 825 843 831 819 810 810 815 808 807 809 809 810 806 802 797 793 789 784 781 778 772 767 764 760 756 752 748 740 739 734 726 724 717 711 708 702 699 699 702 705 709 713 718 723 726 729 738 739
829 834 859 850 842 821 814 817 803 812 809 806 804 802 800 800 794 789 785 781 775 772 768 765 761 753 748 737 737 740 732 725 723 715 709 705 699 695 696 698 702 706 711 714 722 732 732 734 738
837 846 836 848 832 843 821 811 811 812 808 804 801 797 794 794 791 787 783 780 776 772 769 766 761 755 748 745 741 737 733 724 721 711 706 702 695 693 695 698 700 703 704 709 709 725 733 733 737
840 839 852 851 879 856 831 824 807 808 805 803 800 796 795 793 788 786 784 780 776 773 770 765 761 755 749 745 740 735 730 724 717 711 705 700 693 692 694 695 699 703 706 709 709 722 730 732 738
851 850 847 855 851 858 852 824 811 811 804 804 802 797 794 789 786 785 782 778 775 773 768 763 760 753 749 742 739 734 729 722 716 711 705 698 693 691 694 698 700 703 705 710 715 720 729 733 736
843 843 853 888 879 873 865 823 802 804 804 802 800 793 790 787 784 783 780 776 773 771 767 764 760 754 747 742 737 732 727 721 715 710 705 698 694 694 694 698 701 702 705 711 715 720 730 732 739